FW2026 Weather Reports


Display with metric or nautical units.
time (UTC)temp
F
wind
direction
speed
MPH
gust
MPH
rain 1hr
in
rain 24hr
in
rain mn
in
humidity
%
barometer
mb
20260506002930 49 0 4.0 10.0 0.04 0.09 0.07 88 1007.3
20260506002431 49 338 6.0 10.0 0.03 0.09 0.06 87 1007.3
20260506001931 49 350 5.0 10.0 0.04 0.09 0.06 87 1007.4
20260506001431 49 351 5.0 10.0 0.04 0.09 0.06 87 1007.4
20260506000930 49 347 5.0 10.0 0.03 0.09 0.06 88 1007.5
20260506000433 49 6 4.0 11.0 0.04 0.09 0.06 88 1007.5
20260505235931 49 0 6.0 11.0 0.04 0.06 0.06 87 1007.6
20260505235431 49 357 5.0 7.0 0.03 0.06 0.05 87 1007.6
20260505234929 49 0 3.0 9.0 0.03 0.06 0.05 87 1007.6
20260505234430 49 3 5.0 9.0 0.03 0.06 0.04 87 1007.7
20260505234204 49 0 4.0 9.0 0.03 0.06 0.04 87 1007.7
20260505233430 49 0 5.0 11.0 0.03 0.06 0.04 87 1007.8
20260505232931 49 0 5.0 11.0 0.02 0.06 0.03 87 1007.8
20260505232429 49 25 4.0 11.0 0.02 0.06 0.03 87 1007.8
20260505231928 49 0 5.0 11.0 0.02 0.06 0.02 87 1008.0
20260505231427 49 1 5.0 10.0 0.02 0.06 0.02 87 1007.8
20260505230926 50 0 6.0 10.0 0.02 0.06 0.02 87 1007.7
20260505230425 50 0 5.0 9.0 0.02 0.06 0.02 87 1007.7
20260505225924 50 0 5.0 12.0 0.02 0.04 0.02 87 1007.8
20260505225424 50 348 7.0 12.0 0.02 0.04 0.02 87 1007.9
20260505225155 50 0 6.0 11.0 0.02 0.04 0.02 87 1007.9
20260505224423 50 341 6.0 11.0 0.02 0.04 0.01 87 1007.9
20260505223923 50 23 4.0 15.0 0.02 0.04 0.01 87 1008.0
20260505223420 50 8 5.0 15.0 0.02 0.04 0.01 87 1008.0
20260505222922 50 38 7.0 15.0 0.02 0.04 0.01 87 1007.9
20260505222421 50 7 4.0 12.0 0.02 0.04 0.01 86 1008.0
20260505221921 50 20 7.0 12.0 0.02 0.04 0.01 86 1008.0
20260505221417 50 1 5.0 10.0 0.02 0.04 0.01 86 1008.0
20260505220918 50 0 5.0 10.0 0.02 0.04 0.00 86 1008.1
20260505220418 50 343 5.0 9.0 0.02 0.04 0.00 86 1008.0
20260505215918 50 24 4.0 11.0 0.02 0.02 0.04 86 1008.0
20260505215417 51 4 6.0 11.0 0.02 0.02 0.04 86 1008.0
20260505214920 51 345 4.0 11.0 0.02 0.02 0.03 86 1008.1
20260505214416 51 10 4.0 11.0 0.02 0.02 0.03 85 1008.1
20260505214208 51 18 6.0 10.0 0.02 0.02 0.03 85 1008.2
20260505213419 51 0 4.0 10.0 0.01 0.02 0.02 85 1008.2
20260505212918 51 354 5.0 7.0 0.01 0.02 0.02 85 1008.2
20260505212419 51 347 4.0 9.0 0.02 0.02 0.02 85 1008.2
20260505211915 51 18 4.0 11.0 0.02 0.02 0.02 85 1008.2
20260505211415 51 20 6.0 11.0 0.02 0.02 0.02 85 1008.3
20260505210916 51 0 4.0 12.0 0.01 0.02 0.02 85 1008.3
20260505210417 51 10 5.0 12.0 0.01 0.02 0.02 84 1008.3
20260505210148 51 11 6.0 12.0 0.02 0.01 0.02 84 1008.4
20260505205414 51 27 7.0 12.0 0.02 0.01 0.02 84 1008.4
20260505205147 51 20 6.0 10.0 0.02 0.01 0.02 84 1008.4
20260505204417 51 353 5.0 10.0 0.02 0.01 0.02 84 1008.4
20260505203410 51 1 6.0 10.0 0.02 0.01 0.02 84 1008.5
20260505202909 51 21 3.0 11.0 0.02 0.01 0.01 84 1008.5
20260505202407 51 1 6.0 11.0 0.01 0.01 0.01 83 1008.4
20260505201909 51 59 6.0 9.0 0.01 0.01 0.01 83 1008.5
20260505201406 51 17 4.0 7.0 0.01 0.01 0.01 83 1008.5
20260505200909 51 4 5.0 7.0 0.01 0.01 0.01 83 1008.4
20260505200405 51 17 4.0 7.0 0.01 0.01 0.01 83 1008.3
20260505195905 51 0 3.0 12.0 0.00 0.00 0.00 83 1008.3
20260505195405 51 25 8.0 12.0 0.00 0.00 0.00 83 1008.4
20260505194904 51 16 6.0 10.0 0.00 0.00 0.00 83 1008.3
20260505194405 51 0 5.0 10.0 0.00 0.00 0.00 83 1008.4
20260505193903 51 0 3.0 10.0 0.00 0.00 0.00 83 1008.3
20260505193401 51 17 4.0 11.0 0.00 0.00 0.00 83 1008.3
20260505192903 51 7 5.0 11.0 0.00 0.00 0.00 83 1008.4
20260505192403 51 62 5.0 12.0 0.00 0.00 0.00 83 1008.3
20260505191903 51 7 8.0 13.0 0.00 0.00 0.00 83 1008.3
20260505191402 51 358 8.0 13.0 0.00 0.00 0.00 83 1008.3
20260505190902 51 13 8.0 13.0 0.00 0.01 0.00 82 1008.2
20260505190404 51 17 8.0 13.0 0.00 0.01 0.00 82 1008.2
20260505185903 51 25 8.0 13.0 0.00 0.01 0.00 82 1008.2
20260505184907 51 4 7.0 12.0 0.00 0.01 0.00 82 1008.2
20260505183900 51 4 7.0 12.0 0.00 0.01 0.00 82 1008.2
20260505183400 51 23 6.0 9.0 0.00 0.01 0.00 82 1008.1
20260505182859 51 16 4.0 9.0 0.00 0.01 0.00 82 1008.2
20260505182631 51 21 3.0 10.0 0.00 0.01 0.00 82 1008.1
20260505181858 51 35 4.0 11.0 0.00 0.01 0.00 82 1008.1
20260505181356 51 23 4.0 13.0 0.00 0.01 0.00 82 1008.1
20260505181128 51 0 8.0 14.0 0.00 0.01 0.00 81 1008.1
20260505180356 51 52 7.0 14.0 0.00 0.01 0.00 82 1008.3
20260505175854 51 39 7.0 12.0 0.00 0.01 0.00 82 1008.3
20260505175355 51 20 5.0 15.0 0.00 0.01 0.00 82 1008.3
20260505174855 52 8 9.0 15.0 0.00 0.01 0.00 81 1008.4
20260505174352 52 7 5.0 10.0 0.00 0.01 0.00 82 1008.3
20260505173853 52 41 5.0 10.0 0.00 0.01 0.00 81 1008.2
20260505173351 52 30 7.0 11.0 0.00 0.01 0.00 81 1008.4
20260505172852 52 0 5.0 12.0 0.00 0.02 0.00 81 1008.4
20260505172352 52 7 6.0 12.0 0.00 0.02 0.00 81 1008.4
20260505172127 52 38 6.0 9.0 0.00 0.02 0.00 81 1008.3
20260505171350 52 59 4.0 9.0 0.00 0.05 0.00 81 1008.3
20260505170848 52 23 6.0 10.0 0.00 0.06 0.00 81 1008.3
20260505170348 52 16 6.0 10.0 0.00 0.06 0.00 81 1008.4
20260505165849 52 52 4.0 10.0 0.00 0.06 0.00 82 1008.3
20260505165349 52 20 3.0 7.0 0.00 0.06 0.00 82 1008.4
20260505165120 52 23 3.0 7.0 0.00 0.06 0.00 82 1008.4
20260505164348 52 34 5.0 7.0 0.00 0.06 0.00 82 1008.4
20260505163846 52 37 3.0 11.0 0.00 0.06 0.00 82 1008.4
20260505163349 52 44 3.0 11.0 0.00 0.06 0.00 82 1008.4
20260505162846 52 7 4.0 10.0 0.00 0.06 0.00 81 1008.4
20260505162623 52 0 6.0 10.0 0.00 0.06 0.00 82 1008.2
20260505161845 52 0 5.0 10.0 0.00 0.06 0.00 82 1008.3
20260505161346 52 23 7.0 10.0 0.00 0.07 0.00 82 1008.4
20260505160846 52 3 4.0 10.0 0.00 0.07 0.00 82 1008.3
20260505160345 52 0 7.0 11.0 0.00 0.07 0.00 81 1008.4
20260505153346 52 0 6.0 13.0 0.00 0.09 0.00 81 1008.5
20260505152844 52 351 8.0 13.0 0.00 0.09 0.00 81 1008.7
20260505152346 52 3 6.0 12.0 0.00 0.09 0.00 81 1008.7
20260505151844 52 3 7.0 12.0 0.00 0.09 0.00 81 1008.7
20260505151345 52 7 4.0 12.0 0.00 0.09 0.00 81 1008.8
20260505150845 52 0 6.0 14.0 0.00 0.09 0.00 81 1008.8
20260505150618 52 21 4.0 14.0 0.00 0.09 0.00 81 1008.8
20260505140342 52 4 5.0 10.0 0.00 0.09 0.00 82 1009.0
20260505124836 52 14 7.0 12.0 0.00 0.09 0.00 82 1009.3
20260505124608 52 4 8.0 12.0 0.00 0.09 0.00 82 1009.5
20260505124109 52 11 6.0 12.0 0.00 0.09 0.00 82 1009.5
20260505123337 52 347 7.0 11.0 0.00 0.09 0.00 82 1009.5
20260505122833 52 344 7.0 11.0 0.00 0.09 0.00 82 1009.4
20260505122333 53 23 6.0 12.0 0.00 0.09 0.00 82 1009.5
20260505121833 53 14 8.0 12.0 0.00 0.09 0.00 82 1009.5
20260505121333 53 8 6.0 11.0 0.00 0.09 0.00 82 1009.5
20260505120834 53 41 6.0 11.0 0.00 0.09 0.00 82 1009.5
20260505120334 53 355 7.0 11.0 0.00 0.09 0.00 83 1009.6
20260505115832 53 14 7.0 12.0 0.00 0.09 0.00 83 1009.5
20260505115332 53 6 7.0 12.0 0.00 0.09 0.00 83 1009.6
20260505114831 53 0 6.0 11.0 0.00 0.09 0.00 83 1009.7
20260505114331 53 345 8.0 11.0 0.00 0.09 0.00 84 1009.8
20260505113831 53 11 6.0 12.0 0.00 0.09 0.00 84 1009.7
20260505113331 53 0 7.0 12.0 0.00 0.09 0.00 84 1009.7
20260505112833 53 0 7.0 13.0 0.00 0.09 0.00 85 1009.6
20260505112606 52 357 8.0 13.0 0.00 0.09 0.00 85 1009.7
20260505112106 52 0 8.0 13.0 0.00 0.09 0.00 85 1009.6
20260505111332 53 358 9.0 12.0 0.00 0.09 0.00 86 1009.6
20260505110832 52 4 5.0 11.0 0.00 0.09 0.00 86 1009.7
20260505110331 52 6 7.0 11.0 0.00 0.09 0.00 86 1009.7
20260505101827 52 348 8.0 12.0 0.00 0.09 0.00 87 1009.9
20260505101328 52 350 6.0 13.0 0.00 0.09 0.00 87 1010.0
20260505100828 52 350 7.0 13.0 0.00 0.09 0.00 87 1010.0
20260505100328 52 0 8.0 12.0 0.00 0.09 0.00 87 1009.9
20260505095828 52 0 8.0 12.0 0.00 0.09 0.00 87 1009.9
20260505095327 52 7 9.0 13.0 0.00 0.09 0.00 87 1009.9
20260505094827 52 6 9.0 14.0 0.00 0.09 0.00 87 1009.9
20260505094327 53 10 9.0 14.0 0.00 0.09 0.00 87 1009.9
20260505093827 53 7 7.0 13.0 0.00 0.09 0.00 88 1009.9
20260505093326 53 16 6.0 13.0 0.00 0.09 0.00 88 1009.9
20260505092824 53 0 7.0 13.0 0.00 0.09 0.00 88 1010.0
20260505092322 52 0 9.0 13.0 0.00 0.09 0.00 87 1010.0
20260505091822 53 0 8.0 12.0 0.00 0.09 0.00 87 1010.0
20260505091322 53 20 5.0 11.0 0.00 0.09 0.00 88 1010.0
20260505090823 53 338 6.0 13.0 0.00 0.09 0.00 88 1010.0
20260505090322 53 0 7.0 13.0 0.00 0.09 0.00 88 1009.9
20260505085818 53 355 8.0 12.0 0.00 0.09 0.00 88 1009.9
20260505085318 53 354 8.0 13.0 0.00 0.09 0.00 88 1009.9
20260505084817 53 357 7.0 13.0 0.00 0.09 0.00 88 1009.9
20260505084320 53 21 7.0 12.0 0.00 0.09 0.00 88 1010.0
20260505083819 53 10 6.0 12.0 0.00 0.09 0.00 88 1009.9
20260505083318 53 3 7.0 12.0 0.00 0.09 0.00 88 1009.8
20260505082816 53 0 7.0 12.0 0.00 0.09 0.00 88 1009.9
20260505082317 53 7 6.0 10.0 0.00 0.09 0.00 88 1010.0
20260505082048 53 353 6.0 11.0 0.00 0.09 0.00 88 1010.0
20260505081317 53 354 6.0 11.0 0.00 0.09 0.00 88 1010.0
20260505080815 53 0 4.0 10.0 0.00 0.09 0.00 88 1009.9
20260505080313 53 0 7.0 10.0 0.00 0.09 0.00 88 1009.8
20260505075812 54 357 6.0 10.0 0.00 0.09 0.00 88 1009.9
20260505075316 54 0 6.0 10.0 0.00 0.09 0.00 88 1009.8
20260505074810 54 18 5.0 11.0 0.00 0.09 0.00 88 1010.0
20260505074310 54 0 7.0 11.0 0.00 0.09 0.00 88 1009.9
20260505073812 54 13 7.0 12.0 0.00 0.09 0.00 88 1009.9
20260505073311 54 0 8.0 12.0 0.00 0.09 0.00 88 1009.8
20260505072810 54 0 6.0 10.0 0.00 0.09 0.00 88 1009.9
20260505072312 54 0 7.0 10.0 0.00 0.09 0.00 88 1009.8
20260505071810 55 0 6.0 10.0 0.00 0.09 0.00 88 1009.8
20260505071311 55 0 6.0 10.0 0.00 0.09 0.00 88 1009.7
20260505070807 55 0 6.0 9.0 0.00 0.09 0.00 88 1009.8
20260505070541 55 0 4.0 9.0 0.00 0.09 0.00 88 1009.8
20260505065807 55 52 5.0 7.0 0.00 0.09 0.00 88 1009.8
20260505065309 55 0 4.0 9.0 0.00 0.09 0.00 88 1009.7
20260505065041 55 23 6.0 9.0 0.00 0.09 0.00 88 1009.9
20260505064308 55 18 6.0 9.0 0.00 0.09 0.00 88 1009.9
20260505064040 55 20 4.0 9.0 0.00 0.09 0.00 88 1010.0
20260505063304 55 0 6.0 9.0 0.00 0.09 0.00 88 1010.1
20260505062805 55 1 4.0 9.0 0.00 0.09 0.00 88 1010.0
20260505062304 55 6 6.0 9.0 0.00 0.09 0.00 88 1010.0
20260505061804 55 0 6.0 9.0 0.00 0.09 0.00 88 1010.0
20260505061303 55 0 5.0 7.0 0.00 0.09 0.00 88 1010.0
20260505060802 56 355 4.0 7.0 0.00 0.09 0.00 88 1010.0
20260505060535 56 0 2.0 4.0 0.00 0.09 0.00 88 1010.0
20260505055802 56 10 2.0 4.0 0.00 0.09 0.00 88 1010.0
20260505055304 56 14 3.0 4.0 0.00 0.09 0.00 88 1009.9
20260505054803 56 358 1.0 2.0 0.00 0.09 0.00 88 1009.9
20260505054535 56 18 1.0 3.0 0.00 0.09 0.00 88 1009.9
20260505053802 55 23 2.0 3.0 0.00 0.09 0.00 88 1009.9
20260505053304 56 20 2.0 3.0 0.00 0.09 0.00 88 1009.9
20260505052802 55 16 2.0 3.0 0.00 0.09 0.00 88 1010.0
20260505052304 55 49 2.0 2.0 0.00 0.09 0.00 88 1009.9
20260505051803 55 44 1.0 2.0 0.00 0.09 0.00 88 1010.0
20260505051302 55 42 0.0 2.0 0.00 0.09 0.00 88 1009.9
20260505051035 55 42 1.0 2.0 0.00 0.09 0.00 88 1009.8
20260505050300 55 42 1.0 2.0 0.00 0.09 0.00 88 1009.9
20260505041252 54 87 0.0 0.0 0.00 0.09 0.00 88 1009.9
20260505040245 54 87 0.0 0.0 0.00 0.09 0.00 88 1010.0
20260505035747 54 87 0.0 0.0 0.00 0.09 0.00 88 1009.9
20260505035244 55 87 0.0 1.0 0.00 0.09 0.00 88 1009.9
20260505034744 55 87 0.0 2.0 0.00 0.09 0.00 88 1009.9
20260505034243 55 87 0.0 2.0 0.00 0.09 0.00 87 1009.9
20260505033741 55 87 1.0 1.0 0.00 0.09 0.00 87 1009.8
20260505033241 55 89 0.0 1.0 0.00 0.09 0.00 87 1009.9
20260505032741 55 87 0.0 1.0 0.00 0.09 0.00 87 1009.9
20260505032239 55 87 0.0 2.0 0.00 0.09 0.00 88 1009.9
20260505031741 55 87 1.0 2.0 0.00 0.09 0.00 88 1010.0
20260505031239 55 102 0.0 2.0 0.00 0.09 0.00 88 1010.0
20260505030739 55 104 1.0 2.0 0.00 0.09 0.00 88 1010.0
20260505030237 55 110 0.0 0.0 0.00 0.09 0.00 87 1010.2
20260505025738 55 110 0.0 2.0 0.00 0.09 0.00 88 1010.1
20260505025510 55 110 1.0 2.0 0.00 0.09 0.00 88 1010.1
20260505024735 55 137 0.0 1.0 0.00 0.09 0.00 87 1010.2
20260505024236 55 137 0.0 1.0 0.00 0.09 0.00 87 1010.1
20260505024014 55 137 0.0 1.0 0.00 0.09 0.00 87 1010.2
20260505022733 56 137 0.0 1.0 0.00 0.09 0.00 87 1010.3
20260505022238 56 138 0.0 2.0 0.00 0.09 0.00 87 1010.4
20260505021733 56 138 0.0 2.0 0.00 0.09 0.00 87 1010.4
20260505021244 56 138 1.0 2.0 0.00 0.09 0.00 87 1010.3
20260505020734 56 141 1.0 2.0 0.00 0.09 0.00 87 1010.4
20260505020244 56 118 0.0 0.0 0.00 0.09 0.00 87 1010.3
20260505015732 56 103 0.0 0.0 0.00 0.09 0.00 87 1010.3
20260505015236 56 125 0.0 0.0 0.00 0.09 0.00 87 1010.3
20260505015010 56 125 0.0 0.0 0.00 0.09 0.00 87 1010.4
20260505014234 56 125 0.0 0.0 0.00 0.09 0.00 87 1010.4
20260505013732 56 125 0.0 0.0 0.00 0.09 0.00 87 1010.5
20260505013233 56 125 0.0 0.0 0.00 0.09 0.00 87 1010.5
20260505012734 56 125 0.0 0.0 0.00 0.09 0.00 87 1010.5
20260505012238 56 125 0.0 0.0 0.00 0.09 0.00 87 1010.6
20260505011733 56 125 0.0 0.0 0.00 0.09 0.00 87 1010.6
20260505011238 56 125 0.0 0.0 0.00 0.09 0.00 87 1010.6
20260505010732 56 125 0.0 0.0 0.00 0.09 0.00 87 1010.7
20260505010232 56 113 0.0 0.0 0.00 0.09 0.00 87 1010.6
20260505005731 56 78 0.0 0.0 0.00 0.09 0.00 87 1010.7
20260505005231 56 78 0.0 0.0 0.00 0.09 0.00 87 1010.7
20260505005006 56 78 0.0 0.0 0.00 0.09 0.00 86 1010.7
20260505004233 56 78 0.0 0.0 0.00 0.09 0.00 86 1010.7
20260505003731 56 78 0.0 0.0 0.00 0.09 0.00 86 1010.8
20260505003234 56 78 0.0 0.0 0.00 0.09 0.00 87 1010.8